FW8091 Weather Reports


time (UTC)temp
F
wind
direction
speed
knots
gust
knots
rain 1hr
in
rain 24hr
in
rain mn
in
humidity
%
barometer
mb
20260502224505 64 9 6.1 13.9 0.00 0.00 0.00 63 1018.7
20260502223007 64 43 8.7 13.9 0.00 0.00 0.00 64 1018.7
20260502221501 64 73 7.8 13.0 0.00 0.00 0.00 64 1018.9
20260502220105 64 29 7.8 12.2 0.00 0.00 0.00 64 1019.0
20260502214614 64 42 6.1 12.2 0.00 0.00 0.00 64 1019.2
20260502213119 64 26 6.1 12.2 0.00 0.00 0.00 64 1019.3
20260502211531 64 27 5.2 10.4 0.00 0.00 0.00 64 1019.3
20260502210023 64 30 6.1 10.4 0.00 0.00 0.00 64 1019.3
20260502204534 64 37 6.1 11.3 0.00 0.00 0.00 63 1019.2
20260502203024 64 46 6.1 12.2 0.00 0.00 0.00 63 1019.1
20260502201519 64 45 8.7 13.9 0.00 0.00 0.00 64 1019.0
20260502200019 65 47 9.6 14.8 0.00 0.00 0.00 64 1018.9
20260502194551 64 60 9.6 14.8 0.00 0.00 0.00 64 1018.8
20260502193047 65 60 7.0 14.8 0.00 0.00 0.00 64 1018.8
20260502191546 65 42 9.6 13.0 0.00 0.00 0.00 65 1018.7
20260502190041 65 65 9.6 15.6 0.00 0.00 0.00 65 1018.7
20260502184538 65 65 8.7 13.9 0.00 0.00 0.00 65 1018.6
20260502183038 65 38 9.6 14.8 0.00 0.00 0.00 65 1018.6
20260502181534 65 46 9.6 13.9 0.00 0.00 0.00 65 1018.7
20260502163038 65 33 10.4 13.9 0.00 0.00 0.00 64 1019.5
20260502161527 66 50 8.7 15.6 0.00 0.00 0.00 64 1019.4
20260502151506 66 62 7.8 13.9 0.00 0.00 0.00 64 1020.0
20260502123114 66 71 7.0 11.3 0.00 0.00 0.00 63 1021.9
20260502121501 66 77 10.4 14.8 0.00 0.00 0.00 62 1021.7
20260502120119 67 60 8.7 12.2 0.00 0.00 0.00 63 1021.8
20260502114603 67 77 8.7 13.0 0.00 0.00 0.00 62 1022.1
20260502113103 67 41 5.2 13.0 0.00 0.00 0.00 63 1022.5
20260502111551 66 56 7.0 13.9 0.00 0.00 0.00 63 1022.5
20260502110051 66 56 9.6 13.0 0.00 0.00 0.00 63 1022.5
20260502104549 66 73 9.6 14.8 0.00 0.00 0.00 63 1022.5
20260502103047 66 73 9.6 13.9 0.00 0.00 0.00 64 1022.6
20260502101545 66 47 9.6 13.9 0.00 0.00 0.00 64 1023.0
20260502091512 66 47 7.0 12.2 0.00 0.00 0.00 64 1023.2
20260502070112 66 37 7.8 13.9 0.00 0.00 0.00 61 1023.0
20260502064555 65 29 10.4 13.9 0.00 0.00 0.00 60 1023.1
20260502063024 65 45 8.7 13.9 0.00 0.00 0.00 61 1023.2
20260502061524 66 41 7.8 13.9 0.00 0.00 0.00 61 1022.9
20260502060022 65 43 6.1 10.4 0.00 0.00 0.00 61 1022.9
20260502054520 65 58 4.3 9.6 0.00 0.00 0.00 61 1022.8
20260502053021 65 29 3.5 10.4 0.00 0.00 0.00 61 1022.8
20260502051528 65 43 6.1 9.6 0.00 0.00 0.00 61 1022.7
20260502050017 65 35 7.0 10.4 0.00 0.00 0.00 61 1022.7
20260502044516 65 65 4.3 9.6 0.00 0.00 0.00 61 1022.7
20260502043014 65 28 6.1 8.7 0.00 0.00 0.00 61 1022.9
20260502041514 65 40 6.1 9.6 0.00 0.00 0.00 60 1022.9
20260502040011 65 36 5.2 10.4 0.00 0.00 0.00 60 1023.0
20260502034510 65 39 7.0 10.4 0.00 0.00 0.00 60 1023.1
20260502033009 65 45 7.8 12.2 0.00 0.00 0.00 61 1023.0
20260502031508 65 49 7.0 10.4 0.00 0.00 0.00 61 1023.1
20260502030004 65 66 7.0 10.4 0.00 0.00 0.00 61 1023.0
20260502024502 65 56 7.0 12.2 0.00 0.00 0.00 61 1023.1
20260502023100 65 77 7.0 10.4 0.00 0.00 0.00 61 1023.1
20260502021557 65 62 6.1 11.3 0.00 0.00 0.00 61 1022.9
20260502020056 65 58 7.8 13.0 0.00 0.00 0.00 61 1023.3
20260502014550 65 9 7.0 13.0 0.00 0.00 0.00 61 1023.2
20260502013047 65 77 9.6 14.8 0.00 0.00 0.00 61 1023.4
20260502011547 65 75 7.8 14.8 0.00 0.00 0.00 61 1023.4
20260502010043 65 73 5.2 13.9 0.00 0.00 0.00 61 1023.4
20260502004540 65 46 8.7 13.0 0.00 0.00 0.00 61 1023.7
20260502003037 65 69 7.0 13.0 0.00 0.00 0.00 61 1024.1
20260502001544 65 70 8.7 13.0 0.00 0.00 0.00 61 1024.2
20260502000114 65 40 6.1 11.3 0.00 0.00 0.00 61 1024.5
20260501234601 65 58 2.6 10.4 0.00 0.00 0.00 61 1024.6
20260501233100 65 41 6.1 9.6 0.00 0.00 0.00 61 1024.7
20260501231557 66 56 6.1 10.4 0.00 0.00 0.00 61 1024.7
20260501230101 66 51 4.3 10.4 0.00 0.00 0.00 61 1024.7